Weather History for Tarboro, NC

Change the Weather History Date:

Wednesday, May 22, 2013

  Actual Average Record
Temperature  
Mean Temperature 76 °F -  
Max Temperature 89 °F 81 °F 94 °F (1960)
Min Temperature 68 °F 57 °F 44 °F (1992)
Cooling Degree Days 12    
Growing Degree Days 26 (Base 50)    
Moisture  
Dew Point 66 °F    
Average Humidity 73    
Maximum Humidity 91    
Minimum Humidity 49    
Precipitation  
Precipitation 0.00 in - - ()
Sea Level Pressure  
Sea Level Pressure 30.00 in    
Wind  
Wind Speed 7 mph (SSW)    
Max Wind Speed 13 mph    
Max Gust Speed 22 mph    
Visibility 10 miles    
Events Rain    
Averages and records for this station are not official NWS values.
T = Trace of Precipitation, MM = Missing Value Source: NWS Daily Summary

Daily Weather History Graph

Daily Weather History Graph

Search for Another Location

Airport:

Trip Planner

Search our weather history database for the weather conditions in past years. The results will help you decide how hot, cold, wet, or windy it might be!

Date:

Astronomy

May. 22, 2013 Rise Set
Actual Time 5:59 AM EDT 8:14 PM EDT
Civil Twilight 5:30 AM EDT 8:43 PM EDT
Nautical Twilight 4:54 AM EDT 9:19 PM EDT
Astronomical Twilight 4:16 AM EDT 9:58 PM EDT
Moon 5:38 PM EDT (5/22) 3:56 AM EDT (5/22)
Length of Visible Light 15h 13m
Length of Day
14h 15m
Waxing Gibbous, 91% of the Moon is Illuminated
May 22
Waxing Gibbous
May 25
Full
May 31
Last Quarter
Jun 8
New
Jun 16
First Quarter

Hourly Weather History & Observations

Time (EDT) Temp. Heat Index Dew Point Humidity Pressure Visibility Wind Dir Wind Speed Gust Speed Precip Events Conditions
12:15 AM 70.3 °F - 67.3 °F 90% 30.02 in 10.0 mi SSW 6.9 mph - N/A   Clear
12:35 AM 70.3 °F - 66.7 °F 88% 30.02 in 10.0 mi SSW 6.9 mph - N/A   Clear
12:55 AM 70.0 °F - 66.2 °F 88% 30.02 in 10.0 mi SSW 5.8 mph - N/A   Clear
1:15 AM 69.8 °F - 65.7 °F 87% 30.02 in 10.0 mi South 5.8 mph - N/A   Clear
1:35 AM 69.3 °F - 65.5 °F 88% 30.02 in 10.0 mi SSW 6.9 mph - N/A   Clear
1:55 AM 69.1 °F - 65.3 °F 88% 30.01 in 10.0 mi SSW 4.6 mph - N/A   Clear
2:15 AM 68.7 °F - 65.3 °F 89% 30.01 in 10.0 mi SSW 4.6 mph - N/A   Clear
2:35 AM 68.5 °F - 65.1 °F 89% 30.01 in 10.0 mi SSW 5.8 mph - N/A   Clear
2:55 AM 68.4 °F - 64.9 °F 89% 30.01 in 10.0 mi SSW 4.6 mph - N/A   Clear
3:15 AM 68.0 °F - 64.8 °F 89% 30.00 in 10.0 mi SSW 5.8 mph - N/A   Clear
3:35 AM 68.0 °F - 64.8 °F 89% 30.01 in 10.0 mi SSW 4.6 mph - N/A   Clear
3:55 AM 68.0 °F - 64.8 °F 89% 30.01 in 10.0 mi SSW 4.6 mph - N/A   Clear
4:15 AM 68.0 °F - 64.8 °F 89% 30.00 in 10.0 mi SSW 5.8 mph - N/A   Clear
4:35 AM 68.0 °F - 64.9 °F 90% 30.00 in 10.0 mi SSW 8.1 mph - N/A   Mostly Cloudy
4:55 AM 68.0 °F - 65.3 °F 91% 30.00 in 10.0 mi South 5.8 mph - N/A   Mostly Cloudy
5:15 AM 68.2 °F - 65.5 °F 91% 30.00 in 10.0 mi South 8.1 mph - N/A   Overcast
5:35 AM 68.4 °F - 65.5 °F 90% 29.99 in 10.0 mi SSW 8.1 mph - N/A   Overcast
5:55 AM 68.4 °F - 65.7 °F 91% 30.00 in 10.0 mi SSW 6.9 mph - N/A   Overcast
6:15 AM 68.7 °F - 65.7 °F 90% 30.00 in 10.0 mi SSW 5.8 mph - N/A   Overcast
6:35 AM 69.1 °F - 65.8 °F 89% 30.01 in 10.0 mi SSW 4.6 mph - N/A   Overcast
6:55 AM 69.4 °F - 66.2 °F 89% 30.02 in 10.0 mi SSW 4.6 mph - N/A   Overcast
7:15 AM 69.8 °F - 66.4 °F 89% 30.02 in 10.0 mi SW 4.6 mph - N/A   Overcast
7:35 AM 70.7 °F - 66.4 °F 86% 30.02 in 10.0 mi SSW 3.5 mph - N/A   Overcast
7:55 AM 71.1 °F - 66.4 °F 85% 30.03 in 10.0 mi SW 6.9 mph - N/A   Overcast
8:15 AM 71.4 °F - 66.0 °F 83% 30.04 in 10.0 mi SSW 8.1 mph - N/A   Overcast
8:35 AM 72.0 °F - 66.0 °F 81% 30.04 in 10.0 mi SW 9.2 mph - N/A   Overcast
8:55 AM 72.9 °F - 66.4 °F 80% 30.04 in 10.0 mi SSW 9.2 mph - N/A   Overcast
9:15 AM 74.7 °F - 66.7 °F 76% 30.04 in 10.0 mi SSW 10.4 mph - N/A   Overcast
9:35 AM 75.9 °F - 66.6 °F 73% 30.04 in 10.0 mi WSW 11.5 mph 16.1 mph N/A   Mostly Cloudy
9:55 AM 77.0 °F - 66.0 °F 69% 30.04 in 10.0 mi SSW 12.7 mph - N/A   Mostly Cloudy
10:15 AM 77.4 °F - 65.8 °F 67% 30.05 in 10.0 mi SW 9.2 mph - N/A   Mostly Cloudy
10:35 AM 77.0 °F - 66.0 °F 69% 30.04 in 10.0 mi SSW 8.1 mph - N/A   Scattered Clouds
10:55 AM 79.0 °F - 66.2 °F 65% 30.04 in 10.0 mi SW 8.1 mph - N/A   Mostly Cloudy
11:15 AM 80.1 °F 82.1 °F 66.0 °F 62% 30.04 in 10.0 mi South 11.5 mph - N/A   Mostly Cloudy
11:35 AM 81.3 °F 83.2 °F 65.5 °F 58% 30.04 in 10.0 mi SSW 8.1 mph - N/A   Mostly Cloudy
11:55 AM 81.9 °F 83.9 °F 65.7 °F 58% 30.03 in 10.0 mi SSW 9.2 mph - N/A   Mostly Cloudy
12:15 PM 81.9 °F 84.1 °F 66.0 °F 59% 30.02 in 10.0 mi SSW 6.9 mph - N/A   Mostly Cloudy
12:35 PM 82.2 °F 84.0 °F 65.1 °F 56% 30.02 in 10.0 mi WSW 12.7 mph 21.9 mph N/A   Mostly Cloudy
12:55 PM 83.7 °F 84.9 °F 64.0 °F 51% 30.02 in 10.0 mi SW 9.2 mph - N/A   Mostly Cloudy
1:15 PM 83.5 °F 84.7 °F 63.9 °F 51% 30.01 in 10.0 mi SSW 12.7 mph 17.3 mph N/A   Mostly Cloudy
1:35 PM 84.0 °F 85.2 °F 63.7 °F 50% 30.00 in 10.0 mi SW 9.2 mph 16.1 mph N/A   Mostly Cloudy
1:55 PM 83.7 °F 84.9 °F 63.7 °F 51% 30.00 in 10.0 mi SW 8.1 mph - N/A   Overcast
2:15 PM 84.6 °F 85.9 °F 64.0 °F 50% 29.98 in 10.0 mi SSW 8.1 mph 17.3 mph N/A   Mostly Cloudy
2:35 PM 85.1 °F 86.4 °F 63.9 °F 49% 29.98 in 10.0 mi South 9.2 mph - N/A   Mostly Cloudy
2:55 PM 84.4 °F 86.6 °F 65.8 °F 54% 29.98 in 10.0 mi SE 10.4 mph 17.3 mph N/A   Mostly Cloudy
3:15 PM 84.0 °F 86.8 °F 67.1 °F 57% 29.97 in 10.0 mi SSE 9.2 mph 17.3 mph N/A   Scattered Clouds
3:35 PM 84.9 °F 87.1 °F 66.2 °F 53% 29.97 in 10.0 mi SSE 11.5 mph 16.1 mph N/A   Clear
3:55 PM 84.4 °F 86.3 °F 65.7 °F 53% 29.97 in 10.0 mi South 12.7 mph 18.4 mph N/A   Clear
4:15 PM 79.0 °F - 66.7 °F 66% 29.97 in 7.0 mi South 8.1 mph - N/A Rain Light Rain
4:35 PM 77.5 °F - 68.7 °F 74% 29.96 in 10.0 mi South 8.1 mph 16.1 mph N/A   Scattered Clouds
4:55 PM 77.9 °F - 68.2 °F 72% 29.96 in 10.0 mi South 3.5 mph - N/A   Light Drizzle
5:15 PM 79.7 °F - 68.0 °F 67% 29.95 in 10.0 mi South 9.2 mph - N/A   Scattered Clouds
5:35 PM 81.9 °F 84.6 °F 67.5 °F 62% 29.94 in 10.0 mi South 9.2 mph 18.4 mph N/A   Clear
5:55 PM 82.6 °F 84.9 °F 66.6 °F 58% 29.94 in 10.0 mi South 9.2 mph - N/A   Scattered Clouds
6:15 PM 82.0 °F 83.9 °F 65.3 °F 57% 29.94 in 10.0 mi South 9.2 mph 19.6 mph N/A   Scattered Clouds
6:35 PM 80.8 °F 82.6 °F 65.5 °F 59% 29.94 in 10.0 mi South 8.1 mph - N/A   Clear
6:55 PM 79.5 °F - 65.5 °F 62% 29.94 in 10.0 mi South 6.9 mph - N/A   Clear
7:15 PM 80.1 °F 82.0 °F 65.5 °F 61% 29.95 in 10.0 mi South 8.1 mph - N/A   Clear
7:35 PM 79.3 °F - 65.5 °F 62% 29.95 in 10.0 mi South 4.6 mph - N/A   Clear
7:55 PM 78.3 °F - 66.2 °F 66% 29.95 in 10.0 mi South 5.8 mph - N/A   Clear
8:15 PM 77.7 °F - 65.8 °F 67% 29.95 in 10.0 mi South 5.8 mph 16.1 mph N/A   Clear
8:35 PM 76.8 °F - 65.5 °F 68% 29.96 in 10.0 mi SSE 9.2 mph - N/A   Clear
8:55 PM 76.1 °F - 65.5 °F 70% 29.97 in 10.0 mi South 4.6 mph - N/A   Clear
9:15 PM 75.2 °F - 65.5 °F 72% 29.97 in 10.0 mi South 5.8 mph - N/A   Clear
9:35 PM 74.7 °F - 65.7 °F 73% 29.98 in 10.0 mi South 4.6 mph - N/A   Clear
9:55 PM 74.1 °F - 65.7 °F 75% 29.98 in 10.0 mi South 6.9 mph - N/A   Clear
10:15 PM 73.8 °F - 65.7 °F 76% 29.99 in 10.0 mi South 5.8 mph - N/A   Clear
10:35 PM 73.2 °F - 65.8 °F 78% 29.99 in 10.0 mi SSE 5.8 mph - N/A   Clear
10:55 PM 72.7 °F - 65.7 °F 79% 29.99 in 10.0 mi South 5.8 mph - N/A   Clear
11:15 PM 72.3 °F - 65.5 °F 79% 29.99 in 10.0 mi South 4.6 mph - N/A   Clear
11:35 PM 71.8 °F - 65.5 °F 80% 30.00 in 10.0 mi SSE 5.8 mph - N/A   Clear
11:55 PM 71.4 °F - 65.5 °F 81% 30.00 in 10.0 mi SSE 5.8 mph - N/A   Clear